Regional Weather Roundup
Issued by NWS Cleveland, OH

Home | Current Version | Previous Version | Graphics & Text | Print | Product List | Glossary On
Versions: 1 2 3 4 5 6 7 8 9 10 11 12 13 14 15 16 17 18 19 20 21 22 23 24 25 26 27 28 29 30 31 32 33 34 35 36 37 38 39 40 41 42 43 44 45 46 47 48 49 50
000
ASUS41 KCLE 121500
RWRCLE
OHIO REGIONAL WEATHER ROUNDUP
NATIONAL WEATHER SERVICE WILMINGTON, OH
1000 AM EST TUE DEC 12 2017

NOTE: "FAIR" INDICATES FEW OR NO CLOUDS BELOW 12,000 FEET WITH NO
SIGNIFICANT WEATHER AND/OR OBSTRUCTIONS TO VISIBILITY.

OHZ001>008-015>018-024>027-034-035-043-044-121600-
   NORTHWEST OHIO

CITY           SKY/WX    TMP DP  RH WIND       PRES   REMARKS
DEFIANCE       FAIR      22   8  55 NW18G26   29.93R WCI   7
FINDLAY        FAIR      23   9  55 NW16      29.89R WCI  10
TOLEDO EXPRESS PTSUNNY   21  11  65 NW15G21   29.89R WCI   8
TOLEDO EXEC    FAIR      23   9  55 NW23G31   29.89R WCI   7
LIMA           PTSUNNY   23  10  57 N18G29    29.90R WCI   9
$$

OHZ009>014-019>023-028>033-038-089-121600-
   NORTHEAST OHIO

CITY           SKY/WX    TMP DP  RH WIND       PRES   REMARKS
CLE-HOPKINS    LGT SNOW  25  17  72 NW22G32   29.80R BLWGSNOWWCI  10
CLE-LAKEFRONT  FLURRIES  25  14  63 NW31G45   29.77R WCI   8
CUY CO. ARPT   PTSUNNY   25  19  80 NW21G29   29.76R WCI  10
LORAIN-ELYRIA  CLOUDY    23  10  57 NW22G29   29.81R WCI   8
ASHTABULA      CLOUDY    23  14  68 NW13G28   29.71R WCI  11
AKRON-CANTON   LGT SNOW  25  20  81 NW17G26   29.73R VSB 3/4 WCI  12
WOOSTER        NOT AVBL
MANSFIELD      CLOUDY    21  13  71 NW21G32   29.80R WCI   5
YOUNGSTOWN     FLURRIES  24  17  74 NW22G33   29.69R WCI   9
$$

OHZ042-051>053-060>062-070>072-077>081-121600-
  SOUTHWEST OHIO

CITY           SKY/WX    TMP DP  RH WIND       PRES   REMARKS
CINC-COVINGTON PTSUNNY   28  22  78 NW24G31   29.94R WCI  14
CINC-LUNKEN    CLOUDY    31  22  69 NW14      29.96R WCI  21
HAMILTON       CLOUDY    30  22  72 NW8       29.96R WCI  22
DAYTON         CLOUDY    23  14  68 N17       29.92R WCI   9
WRIGHT-PAT AFB CLOUDY    25  12  57 NW21G31   29.91R WCI  11
DAYTON GENERAL PTSUNNY   27  16  63 NW14G25   29.91R WCI  16
WILMINGTON     CLOUDY    28  18  66 NW20G33   29.88R WCI  15
$$

OHZ036-037-039>041-045>050-054>059-063>069-073>076-082>088-121600-
  CENTRAL AND SOUTHEAST OHIO

CITY           SKY/WX    TMP DP  RH WIND       PRES   REMARKS
COLUMBUS       FAIR      27  17  66 NW20G31   29.84R WCI  13
OSU AIRPORT    FLURRIES  26  14  60 NW25G37   29.84R WCI  11
BOLTON FIELD   MOSUNNY   28  19  69 NW23G35   29.86R WCI  14
RICKENBACK AFB NOT AVBL
NEWARK         CLOUDY    27  16  63 NW20G36   29.81R WCI  13
MARION         NOT AVBL
LANCASTER      CLOUDY    28  21  75 NW16G23   29.84R WCI  16
ZANESVILLE     CLOUDY    29  20  69 NW14G28   29.79R WCI  18
NEW PHILLY     CLOUDY    28  18  66 NW18G26   29.77R WCI  15
$$




USA.gov is the U.S. government's official web portal to all federal, state and local government web resources and services.